TimeCDT,TemperatureF,Dew PointF,Humidity,Sea Level PressureIn,VisibilityMPH,Wind Direction,Wind SpeedMPH,Gust SpeedMPH,PrecipitationIn,Events,Conditions,WindDirDegrees,DateUTC
12:15 AM,55.8,50.0,81,30.02,10.0,Calm,Calm,-,N/A,,Clear,0,2013-09-04 05:15:00
12:35 AM,55.8,49.5,79,30.02,10.0,Calm,Calm,-,N/A,,Clear,0,2013-09-04 05:35:00
12:55 AM,56.7,50.2,79,30.02,10.0,Calm,Calm,-,N/A,,Clear,0,2013-09-04 05:55:00
1:15 AM,55.4,49.5,80,30.02,10.0,Calm,Calm,-,N/A,,Clear,0,2013-09-04 06:15:00
1:35 AM,55.6,49.6,80,30.02,10.0,Calm,Calm,-,N/A,,Clear,0,2013-09-04 06:35:00
1:55 AM,53.6,48.7,84,30.02,10.0,Calm,Calm,-,N/A,,Clear,0,2013-09-04 06:55:00
2:15 AM,54.5,49.5,83,30.02,10.0,Calm,Calm,-,N/A,,Clear,0,2013-09-04 07:15:00
2:35 AM,54.0,49.5,85,30.01,10.0,Calm,Calm,-,N/A,,Clear,0,2013-09-04 07:35:00
2:55 AM,53.6,49.3,85,30.01,10.0,Calm,Calm,-,N/A,,Clear,0,2013-09-04 07:55:00
3:15 AM,52.9,49.3,88,30.02,10.0,Calm,Calm,-,N/A,,Clear,0,2013-09-04 08:15:00
3:35 AM,51.8,48.4,88,30.02,10.0,Calm,Calm,-,N/A,,Clear,0,2013-09-04 08:35:00
3:55 AM,52.2,49.3,90,30.02,10.0,Calm,Calm,-,N/A,,Clear,0,2013-09-04 08:55:00
4:15 AM,52.5,49.3,89,30.03,10.0,Calm,Calm,-,N/A,,Clear,0,2013-09-04 09:15:00
4:35 AM,52.7,49.5,89,30.03,10.0,Calm,Calm,-,N/A,,Clear,0,2013-09-04 09:35:00
4:55 AM,52.9,50.2,91,30.04,10.0,Calm,Calm,-,N/A,,Clear,0,2013-09-04 09:55:00
5:15 AM,53.6,50.0,88,30.05,10.0,Calm,Calm,-,N/A,,Clear,0,2013-09-04 10:15:00
5:35 AM,53.1,49.8,89,30.05,10.0,Calm,Calm,-,N/A,,Clear,0,2013-09-04 10:35:00
5:55 AM,53.8,50.2,88,30.05,10.0,Calm,Calm,-,N/A,,Clear,0,2013-09-04 10:55:00
6:15 AM,55.0,51.6,88,30.05,10.0,Calm,Calm,-,N/A,,Clear,0,2013-09-04 11:15:00
6:35 AM,56.5,52.0,85,30.06,10.0,Calm,Calm,-,N/A,,Clear,0,2013-09-04 11:35:00
6:55 AM,56.8,52.3,85,30.06,10.0,Calm,Calm,-,N/A,,Clear,0,2013-09-04 11:55:00
7:15 AM,59.9,54.7,83,30.06,10.0,West,4.6,-,N/A,,Clear,260,2013-09-04 12:15:00
7:35 AM,61.0,55.2,81,30.06,10.0,West,4.6,-,N/A,,Clear,270,2013-09-04 12:35:00
7:55 AM,64.0,55.4,73,30.08,10.0,West,5.8,-,N/A,,Clear,280,2013-09-04 12:55:00
8:15 AM,65.8,55.4,69,30.08,10.0,West,5.8,-,N/A,,Clear,280,2013-09-04 13:15:00
8:35 AM,67.5,55.2,65,30.08,10.0,WNW,4.6,-,N/A,,Clear,290,2013-09-04 13:35:00
8:55 AM,69.4,55.4,61,30.08,10.0,West,5.8,-,N/A,,Clear,280,2013-09-04 13:55:00
9:15 AM,71.1,55.9,59,30.08,10.0,West,6.9,-,N/A,,Clear,280,2013-09-04 14:15:00
9:35 AM,72.5,56.3,57,30.09,10.0,West,5.8,-,N/A,,Clear,280,2013-09-04 14:35:00
9:55 AM,73.8,56.7,55,30.09,10.0,NW,6.9,-,N/A,,Clear,310,2013-09-04 14:55:00
10:15 AM,75.9,57.2,52,30.09,10.0,NW,5.8,-,N/A,,Clear,320,2013-09-04 15:15:00
10:35 AM,76.8,57.4,51,30.09,10.0,WNW,8.1,-,N/A,,Clear,300,2013-09-04 15:35:00
10:55 AM,77.9,58.1,50,30.10,10.0,NNW,6.9,-,N/A,,Clear,330,2013-09-04 15:55:00
11:15 AM,78.1,58.1,50,30.10,10.0,North,8.1,-,N/A,,Clear,350,2013-09-04 16:15:00
11:35 AM,78.1,58.1,50,30.10,10.0,Calm,Calm,-,N/A,,Clear,0,2013-09-04 16:35:00
11:55 AM,78.4,58.6,50,30.10,10.0,North,3.5,-,N/A,,Clear,10,2013-09-04 16:55:00
12:15 PM,80.4,58.3,47,30.10,10.0,NNE,5.8,-,N/A,,Clear,20,2013-09-04 17:15:00
12:35 PM,79.7,58.1,47,30.10,10.0,Calm,Calm,-,N/A,,Mostly Cloudy,0,2013-09-04 17:35:00
12:55 PM,80.8,58.5,46,30.10,10.0,Calm,Calm,-,N/A,,Scattered Clouds,0,2013-09-04 17:55:00
1:15 PM,81.5,57.9,44,30.09,10.0,West,3.5,-,N/A,,Clear,260,2013-09-04 18:15:00
1:35 PM,82.4,57.2,42,30.09,10.0,West,5.8,-,N/A,,Clear,280,2013-09-04 18:35:00
1:55 PM,83.1,57.7,42,30.08,10.0,WNW,4.6,-,N/A,,Clear,300,2013-09-04 18:55:00
2:15 PM,83.8,57.4,40,30.08,10.0,NW,6.9,-,N/A,,Clear,310,2013-09-04 19:15:00
2:35 PM,85.5,57.6,39,30.08,10.0,WNW,5.8,-,N/A,,Clear,290,2013-09-04 19:35:00
2:55 PM,85.1,58.3,40,30.08,10.0,NNW,6.9,-,N/A,,Mostly Cloudy,330,2013-09-04 19:55:00
3:15 PM,82.4,60.4,47,30.08,10.0,NNE,6.9,-,N/A,,Mostly Cloudy,20,2013-09-04 20:15:00
3:35 PM,79.9,61.7,54,30.08,10.0,NE,8.1,-,N/A,,Mostly Cloudy,40,2013-09-04 20:35:00
3:55 PM,81.3,61.9,52,30.08,10.0,ENE,8.1,-,N/A,,Scattered Clouds,60,2013-09-04 20:55:00
4:15 PM,80.6,61.9,53,30.08,10.0,NNE,6.9,-,N/A,,Scattered Clouds,30,2013-09-04 21:15:00
4:35 PM,81.5,62.1,52,30.08,10.0,NE,4.6,-,N/A,,Clear,50,2013-09-04 21:35:00
4:55 PM,80.6,61.9,53,30.08,10.0,ENE,5.8,-,N/A,,Clear,60,2013-09-04 21:55:00
5:15 PM,79.7,61.9,54,30.08,10.0,ENE,3.5,-,N/A,,Clear,60,2013-09-04 22:15:00
5:35 PM,78.1,63.0,60,30.08,10.0,ENE,5.8,-,N/A,,Scattered Clouds,60,2013-09-04 22:35:00
5:55 PM,77.9,63.7,61,30.09,10.0,ENE,6.9,-,N/A,,Scattered Clouds,70,2013-09-04 22:55:00
6:15 PM,76.3,63.1,64,30.09,10.0,ENE,5.8,-,N/A,,Clear,70,2013-09-04 23:15:00
6:35 PM,74.8,62.6,66,30.09,10.0,ENE,3.5,-,N/A,,Scattered Clouds,60,2013-09-04 23:35:00
6:55 PM,74.5,63.1,68,30.09,10.0,ENE,3.5,-,N/A,,Mostly Cloudy,60,2013-09-04 23:55:00
7:15 PM,73.0,62.6,70,30.10,10.0,Calm,Calm,-,N/A,,Mostly Cloudy,0,2013-09-05 00:15:00
7:35 PM,71.8,62.6,73,30.10,10.0,East,3.5,-,N/A,,Scattered Clouds,80,2013-09-05 00:35:00
7:55 PM,70.2,62.6,77,30.11,10.0,East,3.5,-,N/A,,Clear,80,2013-09-05 00:55:00
8:15 PM,69.3,62.4,79,30.12,10.0,ENE,3.5,-,N/A,,Clear,60,2013-09-05 01:15:00
8:35 PM,68.0,62.1,81,30.13,10.0,East,3.5,-,N/A,,Clear,80,2013-09-05 01:35:00
8:55 PM,67.5,62.4,84,30.13,10.0,East,4.6,-,N/A,,Clear,80,2013-09-05 01:55:00
9:15 PM,66.7,61.7,84,30.14,10.0,ENE,4.6,-,N/A,,Clear,60,2013-09-05 02:15:00
9:35 PM,65.7,60.4,83,30.14,10.0,Calm,Calm,-,N/A,,Clear,0,2013-09-05 02:35:00
9:55 PM,64.8,60.3,85,30.15,10.0,Calm,Calm,-,N/A,,Scattered Clouds,0,2013-09-05 02:55:00
10:15 PM,64.4,60.8,88,30.15,10.0,Calm,Calm,-,N/A,,Clear,0,2013-09-05 03:15:00
10:35 PM,64.2,60.4,87,30.16,10.0,Calm,Calm,-,N/A,,Clear,0,2013-09-05 03:35:00
10:55 PM,62.2,59.2,90,30.16,10.0,NNE,3.5,-,N/A,,Clear,20,2013-09-05 03:55:00
11:15 PM,61.3,59.0,92,30.16,10.0,Calm,Calm,-,N/A,,Clear,0,2013-09-05 04:15:00
11:35 PM,60.6,58.6,93,30.17,10.0,Calm,Calm,-,N/A,,Clear,0,2013-09-05 04:35:00
11:55 PM,61.2,59.2,93,30.18,7.0,Calm,Calm,-,N/A,,Scattered Clouds,0,2013-09-05 04:55:00